Theta_e
344 340 334 331 323 323 315 316 323 320 320 324 323 323 321 325 321 317 338 345 348 350 356 354 360 357 355 353 353 352 352 351 351 351 352 352 352 351 352 352 355 355 353 354 357 357 355 355 354
333 328 328 324 320 312 314 318 317 321 324 326 325 324 320 323 329 333 338 346 350 352 356 353 359 357 354 352 352 351 352 352 351 351 351 351 351 351 350 351 352 352 352 353 353 353 353 354 354
325 322 318 322 323 314 314 319 320 323 325 324 321 323 320 323 330 332 343 347 351 351 353 358 359 356 353 352 351 351 351 351 352 352 352 353 353 354 353 353 352 352 352 351 352 352 352 353 354
323 321 318 317 316 320 320 321 322 321 324 324 323 318 326 333 331 336 346 348 347 346 350 357 358 356 353 352 352 351 351 351 352 352 353 353 353 353 352 352 351 350 350 350 350 351 351 351 351
321 319 314 315 315 321 323 323 323 319 320 321 318 316 321 331 336 344 345 344 342 343 346 352 358 356 353 352 352 352 351 351 351 351 351 350 349 348 348 347 348 348 348 349 350 351 351 352 352
316 317 312 313 313 321 323 324 321 319 321 320 316 315 320 334 336 340 342 340 341 342 343 350 357 356 354 352 352 352 352 351 351 350 349 349 348 349 350 350 350 351 351 352 352 353 354 356 356
314 315 313 312 314 318 322 327 322 320 318 315 318 313 322 328 335 339 339 340 340 341 342 345 347 354 354 353 353 352 352 352 352 351 351 351 351 351 350 351 352 353 353 354 355 356 357 358 359
316 315 311 314 313 316 325 325 325 319 315 319 319 311 315 327 337 338 336 336 338 340 341 344 344 343 344 345 353 352 351 352 352 352 352 351 351 350 350 353 353 353 355 356 357 355 354 353 354
315 312 311 313 315 320 326 322 323 324 317 317 325 317 322 331 335 333 332 333 336 338 341 341 342 343 343 343 349 350 351 351 351 352 349 351 359 360 360 357 357 356 354 352 351 351 351 354 354
313 313 312 315 321 322 325 322 322 319 317 319 322 321 326 329 330 327 327 328 330 333 337 339 340 342 342 341 346 348 348 352 353 353 357 360 361 359 356 356 352 351 350 350 348 349 353 356 353
313 312 314 318 322 327 325 322 324 319 316 320 319 319 324 327 327 325 325 327 328 331 336 338 343 346 343 343 346 347 348 351 354 356 359 360 362 362 358 357 355 355 354 350 349 347 344 344 345
310 313 319 324 325 327 325 325 322 323 321 326 325 321 323 324 325 324 325 326 328 330 335 339 342 346 347 346 346 349 350 351 353 356 358 363 359 360 355 353 352 349 343 339 338 336 338 337 338
311 313 322 326 326 327 328 324 322 324 327 328 328 322 322 324 325 326 326 328 330 331 335 339 342 345 348 350 352 355 353 350 355 358 360 363 360 357 355 350 344 338 337 335 334 334 335 334 335
318 319 324 326 327 327 325 324 325 326 328 327 327 323 324 325 327 328 328 328 331 334 336 340 342 348 348 350 356 358 358 358 357 358 357 357 358 356 350 341 336 335 333 332 330 329 329 330 335
321 317 324 325 326 324 327 321 321 326 328 326 326 327 328 329 331 331 332 333 335 335 337 339 343 347 349 352 358 357 356 355 354 354 354 352 351 346 340 335 333 332 332 330 328 328 327 327 334
317 319 315 324 325 324 325 312 324 329 326 326 326 327 329 333 334 336 336 336 338 340 340 343 341 345 350 357 357 354 354 353 351 350 348 344 341 341 337 331 331 331 329 327 327 327 326 325 328
315 309 312 318 325 324 323 315 324 329 327 326 327 328 328 332 336 339 340 341 342 344 344 344 346 348 353 358 355 354 354 351 351 351 341 338 335 333 332 329 331 331 328 328 328 328 328 325 325
307 308 312 313 322 323 320 318 324 326 327 327 328 329 329 330 333 338 340 342 344 347 351 349 351 356 358 355 354 350 351 348 342 338 336 334 330 330 331 331 331 330 328 329 330 330 329 326 326
314 310 311 314 322 321 318 317 319 326 327 326 328 329 330 330 334 339 342 344 345 347 351 354 356 357 354 350 348 345 344 338 334 333 334 330 330 332 332 330 331 331 330 331 331 328 327 324 326
311 309 310 314 314 319 317 315 317 321 324 326 327 329 331 334 336 338 345 346 347 348 351 355 356 355 353 350 348 349 346 343 335 329 330 331 332 333 331 331 330 331 329 331 331 330 323 323 326
307 308 308 310 310 312 313 311 314 319 323 325 328 330 332 334 336 341 344 347 349 350 352 355 354 354 350 349 349 346 338 334 327 326 327 329 330 331 333 332 332 332 330 327 330 329 328 320 322
304 309 307 305 305 301 312 300 308 312 316 321 326 329 330 333 337 341 344 347 349 351 353 354 351 346 345 343 341 337 330 325 324 325 328 329 331 332 333 334 334 334 330 331 329 329 327 325 319
305 309 307 306 306 306 307 303 306 315 313 318 323 326 330 331 336 338 343 347 349 352 349 345 342 343 342 341 339 331 331 328 326 326 331 332 333 333 332 334 334 334 330 333 332 330 329 324 321
309 307 307 307 306 300 304 304 304 308 311 314 319 324 327 331 334 338 343 347 348 346 339 345 342 339 337 338 338 336 334 332 325 328 327 328 329 331 334 333 334 335 334 331 329 329 328 326 324
308 306 299 297 297 296 305 303 305 311 313 314 316 321 325 330 333 337 341 344 346 339 341 336 335 331 332 335 333 330 333 335 332 330 327 329 327 328 333 334 335 332 331 330 329 328 327 325 322
307 307 299 293 295 298 305 299 304 313 316 318 320 324 327 328 330 336 340 344 341 337 338 335 338 334 331 336 332 330 335 328 329 332 328 328 327 330 335 334 332 330 327 327 327 326 322 324 321
307 304 309 304 304 299 302 305 310 314 315 317 319 322 324 328 329 331 339 344 341 337 339 339 336 333 335 337 337 334 333 335 331 333 334 330 333 332 333 331 329 326 324 323 324 321 321 321 320
309 311 302 304 295 294 300 301 303 310 312 315 318 319 322 331 331 332 337 344 342 339 343 342 338 335 336 339 340 336 334 333 332 333 332 332 333 332 330 328 326 323 321 321 321 319 319 319 317
306 305 306 307 305 298 296 300 312 311 315 316 317 319 321 328 332 335 337 341 341 340 340 338 338 337 336 340 340 337 335 333 333 332 332 333 333 331 326 324 322 320 319 319 320 318 317 315 315
309 308 308 302 301 304 302 301 314 314 316 317 318 320 322 330 333 335 337 338 339 340 340 340 339 336 336 339 338 335 334 332 332 332 332 332 329 327 324 321 319 317 317 316 315 313 313 312 311
Wind_Speed
11 11 5 6 9 6 8 8 1 4 5 2 9 2 7 11 10 8 12 11 15 15 16 15 12 12 12 11 12 12 11 11 11 10 9 9 9 9 9 8 8 8 7 7 7 7 7 7 7
8 5 6 6 9 8 10 6 10 8 9 10 7 3 3 10 9 14 13 13 14 15 14 15 13 12 11 11 10 10 11 10 10 10 9 9 9 9 8 7 7 6 5 5 5 6 7 8 9
8 8 7 6 1 9 11 9 12 11 8 6 5 6 3 7 10 8 17 15 14 13 13 15 13 12 11 10 10 10 10 10 9 9 9 8 8 8 7 6 6 5 4 5 6 7 8 9 10
6 7 7 9 11 9 8 10 8 9 7 3 7 9 10 7 6 8 15 15 14 13 14 15 12 10 10 9 9 9 9 9 8 8 7 7 6 6 5 5 4 3 4 4 5 6 7 8 9
7 5 6 3 9 7 5 8 2 5 5 7 3 9 11 8 7 16 15 12 12 12 14 14 11 10 9 9 8 8 7 7 7 6 6 5 4 3 3 2 3 3 4 5 6 7 8 9 9
7 5 8 4 8 8 8 5 5 5 5 7 12 14 11 10 12 14 13 10 11 11 11 14 11 8 8 8 8 7 7 6 6 6 4 3 2 2 2 3 4 5 6 7 8 9 10 10 10
13 8 3 4 8 8 8 5 6 6 8 10 12 12 11 11 14 12 10 9 10 10 10 11 12 10 8 7 7 6 6 6 5 4 3 1 0 1 3 4 5 6 7 7 8 9 10 10 11
7 7 6 4 7 9 9 7 6 7 11 13 12 8 14 16 16 13 11 11 11 11 9 10 10 12 12 12 7 6 5 5 4 3 1 3 6 5 5 6 3 3 4 4 5 6 7 8 7
4 8 8 4 4 11 12 10 9 4 13 8 5 9 19 18 17 15 13 12 10 9 10 10 10 10 7 9 10 8 7 5 6 7 5 10 2 4 9 9 8 8 6 5 5 7 9 12 13
8 8 4 4 0 7 14 12 11 13 14 12 12 13 20 20 17 16 15 14 14 14 12 10 9 9 8 6 8 6 6 5 3 3 1 0 5 6 5 6 4 4 4 4 3 5 11 12 8
4 5 4 1 2 5 12 13 7 13 12 14 17 20 21 18 16 16 15 14 13 14 11 10 8 7 8 7 6 5 5 4 4 3 2 2 1 2 1 2 3 5 5 6 8 5 7 10 8
8 2 4 3 4 8 13 12 8 12 4 12 17 21 20 19 17 16 15 14 14 13 12 12 11 9 7 5 6 4 4 4 3 3 3 2 2 1 4 5 5 4 5 6 7 6 8 8 9
9 1 1 3 8 6 9 10 7 10 6 9 20 20 20 18 17 14 13 13 12 13 13 12 12 10 8 6 4 3 3 5 3 4 3 1 1 2 3 4 5 5 5 6 6 7 7 8 8
2 4 5 6 10 11 11 7 5 9 9 15 21 21 18 18 17 14 12 14 13 12 13 13 12 10 10 6 5 3 4 4 4 3 5 5 2 2 3 4 4 5 5 6 7 7 7 7 7
3 9 9 8 10 6 7 10 10 10 10 16 19 18 18 18 17 18 17 14 15 13 12 12 12 12 10 8 6 4 5 5 5 5 5 5 4 5 4 4 4 5 5 7 6 7 6 7 6
10 8 13 10 9 5 10 14 10 9 14 14 16 17 18 19 18 16 16 14 13 13 14 13 12 12 11 8 6 5 5 5 5 5 5 6 6 6 5 5 5 5 5 6 6 7 7 7 6
8 15 19 11 9 7 12 8 12 10 11 12 14 17 17 18 17 16 15 15 14 14 14 14 12 12 11 8 6 7 7 5 4 3 5 6 7 7 5 6 6 5 6 6 7 7 8 8 7
15 20 19 13 12 12 15 15 6 7 12 12 13 16 17 18 20 17 16 15 15 13 13 13 11 10 10 8 7 6 5 4 5 4 6 6 7 8 7 7 6 5 6 7 7 8 8 8 9
14 18 14 12 7 13 16 15 16 11 9 13 14 16 17 19 18 17 16 15 13 13 14 15 14 13 11 9 8 7 7 7 6 6 7 7 7 7 6 7 7 7 7 8 8 7 7 8 10
10 14 15 12 4 9 16 18 16 11 15 15 16 16 18 18 17 16 15 15 14 14 14 14 14 15 11 8 8 6 5 6 5 7 7 7 7 6 6 6 6 5 7 7 8 8 8 6 8
10 12 10 11 6 10 7 15 17 18 18 16 17 17 18 19 19 17 18 16 14 14 13 13 13 13 8 7 6 6 7 6 6 7 7 6 7 7 7 6 6 5 5 6 7 7 8 7 6
14 11 8 8 8 12 16 12 13 12 14 17 19 17 19 20 19 18 18 16 14 13 13 12 12 9 5 6 8 9 6 9 9 8 7 7 7 7 6 6 5 5 6 5 5 6 6 7 6
16 12 14 14 13 13 12 10 16 6 12 16 20 21 21 21 20 20 18 16 15 14 13 15 13 12 8 7 9 8 9 7 9 8 11 7 6 6 6 5 5 4 4 4 5 5 6 4 6
1 8 13 13 14 16 20 15 15 12 12 12 15 18 20 19 18 18 16 16 15 17 14 17 18 10 16 10 12 11 9 9 10 10 10 9 7 7 5 5 4 4 3 4 4 4 4 5 5
12 13 10 13 15 16 19 12 13 17 8 11 13 11 13 16 17 16 18 18 17 19 21 20 20 16 16 19 15 12 10 11 12 13 10 9 7 6 7 5 3 4 4 4 4 4 3 4 6
19 18 15 16 15 16 7 10 13 9 10 7 7 6 6 7 10 16 19 20 20 20 23 22 15 6 9 16 16 13 13 11 11 12 9 8 7 6 7 5 5 5 4 4 4 2 5 3 4
9 10 11 13 4 10 9 8 8 10 9 9 9 6 7 6 6 11 15 19 20 20 23 18 14 5 13 18 18 17 15 13 11 13 9 7 6 7 7 6 5 5 5 4 3 5 5 4 4
8 3 8 9 16 17 11 8 7 8 11 11 9 9 9 3 5 7 11 16 19 20 22 17 12 10 14 18 18 16 16 15 12 12 12 10 8 7 8 7 6 5 5 4 4 1 4 4 4
8 10 8 7 8 12 12 10 7 7 10 9 10 7 7 5 6 8 10 15 18 20 22 20 14 13 14 18 16 16 15 16 14 13 12 12 11 10 8 7 6 5 5 4 3 2 3 4 5
11 14 11 10 13 11 10 12 2 6 10 10 10 9 8 7 7 8 10 14 17 20 22 22 17 16 17 17 17 17 16 16 15 14 13 12 11 9 8 7 5 5 6 4 3 4 5 5 5
Wind_Direction
165 189 224 232 232 241 78 72 44 95 112 55 114 6 23 19 3 40 129 122 135 134 129 152 147 145 142 139 131 126 123 121 118 116 114 110 103 100 104 113 116 108 96 81 61 52 35 19 10
171 191 224 274 245 148 83 53 57 74 102 113 119 143 66 76 53 116 131 147 148 136 145 141 146 145 138 131 125 123 120 117 114 113 110 104 99 97 97 101 105 95 81 61 42 22 6 353 347
213 238 262 262 305 55 92 94 103 110 130 140 115 44 58 69 121 110 112 146 142 147 142 119 144 139 132 128 127 124 120 117 113 106 100 96 92 86 80 77 72 60 40 18 2 354 347 340 335
211 199 227 253 88 70 87 114 102 129 127 119 111 88 94 72 108 118 141 145 151 148 134 128 137 133 133 131 131 125 122 119 114 108 102 93 82 75 66 55 47 27 8 345 333 325 322 318 315
226 251 236 165 93 109 123 124 97 126 106 116 174 115 98 87 103 131 141 155 149 138 125 140 142 143 140 135 129 121 114 110 106 100 94 85 78 56 39 11 337 323 317 315 315 315 311 307 304
234 270 236 171 112 119 131 141 129 125 116 109 117 118 100 110 141 143 146 154 143 139 143 131 141 145 140 134 130 123 118 111 105 101 92 85 67 26 342 320 311 309 309 309 310 310 306 299 294
268 247 32 58 117 150 142 163 173 78 119 114 128 123 110 142 135 142 144 141 144 144 148 149 154 144 146 143 140 132 125 113 103 98 90 71 22 332 316 296 292 302 304 306 310 312 310 303 293
275 270 212 162 163 120 138 157 114 138 95 121 141 138 149 139 148 148 150 153 154 151 154 150 152 159 168 153 144 140 134 130 131 119 111 244 212 213 208 233 77 355 344 344 350 347 331 313 295
264 242 217 93 186 121 151 142 143 108 140 140 75 121 130 142 152 157 157 156 155 159 171 159 163 149 158 135 137 167 163 169 183 181 195 230 85 122 110 71 72 59 43 31 358 339 311 284 243
251 256 83 25 351 158 164 147 149 158 153 132 114 120 134 152 164 163 167 166 167 166 168 160 163 149 153 161 156 172 152 175 155 144 140 93 70 48 46 98 115 100 350 234 283 273 276 262 335
169 280 30 56 250 252 149 143 158 152 175 156 145 147 153 162 170 170 173 169 168 164 160 167 162 177 173 172 170 174 175 165 161 168 250 68 201 81 40 10 35 359 28 359 341 344 358 347 338
244 269 318 37 144 195 163 144 167 162 136 146 148 157 160 171 177 177 176 171 168 166 165 167 164 175 194 163 197 153 197 184 202 147 195 183 214 96 0 10 5 7 10 358 7 7 358 353 340
232 182 281 182 168 154 133 175 180 193 154 147 148 163 169 177 178 181 174 170 172 173 173 178 171 179 167 199 164 197 200 199 158 197 141 101 60 44 21 32 19 19 15 15 13 15 6 358 352
80 204 145 172 148 154 179 167 221 162 161 149 159 170 173 178 180 175 186 182 182 181 182 184 183 170 183 196 201 186 188 143 182 141 107 120 98 64 61 66 53 39 20 32 14 16 5 2 355
200 184 164 167 170 142 207 196 216 158 165 159 173 176 175 183 182 186 187 193 188 185 195 189 193 177 191 176 182 161 169 144 138 119 121 103 108 86 84 75 63 50 41 27 30 15 23 12 1
214 234 190 150 183 135 223 191 150 172 189 184 190 182 184 186 191 193 190 196 190 197 192 195 194 177 183 176 170 150 142 141 136 132 120 110 111 107 109 92 64 46 46 35 41 24 16 16 359
203 203 209 151 210 161 210 240 127 180 193 204 197 192 192 189 201 198 202 199 202 202 197 196 192 184 177 161 159 150 134 135 117 121 119 114 111 106 99 87 81 57 55 46 24 38 18 19 1
197 236 197 180 186 215 200 246 140 204 213 210 202 199 203 202 202 204 210 212 208 206 201 194 181 172 163 163 146 129 129 146 129 126 107 132 110 113 105 92 87 73 64 52 40 32 19 18 358
304 225 200 204 132 210 226 226 233 191 227 227 206 203 205 210 209 206 212 217 217 210 200 190 173 160 168 163 159 159 169 149 124 115 121 128 114 114 118 117 110 84 71 55 36 8 39 32 7
239 221 207 127 152 231 226 235 243 225 238 239 225 209 212 210 211 205 211 210 209 204 197 178 169 171 174 155 158 165 142 120 129 125 127 122 125 123 113 103 89 74 92 62 48 33 0 27 39
223 233 193 231 158 230 266 254 252 241 243 234 238 233 214 217 210 204 211 205 200 194 182 167 172 171 150 155 131 146 124 134 148 145 143 135 132 121 118 108 92 95 57 72 43 27 28 359 15
239 214 234 203 220 233 197 258 232 222 220 226 230 226 229 219 222 208 205 202 199 180 162 148 123 113 133 159 150 178 158 165 162 165 135 147 151 139 129 115 99 51 62 56 58 42 357 352 4
242 227 226 223 226 253 203 247 271 176 229 230 223 224 226 227 218 218 203 197 190 169 118 119 131 142 136 187 181 169 193 159 166 154 147 157 153 154 137 126 107 93 63 75 42 16 12 3 338
186 216 233 228 238 231 247 227 253 237 213 244 220 223 231 229 228 216 210 191 185 119 132 143 142 152 154 197 204 182 206 168 172 164 164 171 170 167 157 139 119 86 76 52 46 7 45 6 7
215 199 204 213 223 244 247 241 252 278 284 269 284 293 230 229 218 215 207 193 181 151 163 164 149 192 175 174 182 195 183 178 175 167 178 174 171 174 159 158 152 101 65 45 18 26 25 38 7
201 214 238 236 237 242 149 236 251 249 287 247 258 263 268 251 266 208 210 193 164 178 187 168 187 193 180 168 181 186 178 182 181 192 174 189 180 171 162 147 133 111 82 39 19 358 339 30 12
181 226 264 281 256 280 262 187 271 225 237 235 245 265 279 304 278 239 205 191 170 186 197 182 203 169 172 178 188 183 181 189 186 183 171 169 165 149 156 147 125 91 66 34 344 37 347 335 357
270 115 206 212 253 250 248 234 263 180 218 220 220 236 255 255 251 209 194 181 185 196 197 203 190 207 191 188 183 180 180 184 180 172 185 169 164 155 157 144 121 105 79 24 331 338 74 348 358
178 224 237 299 291 271 266 260 213 228 227 213 220 232 251 207 209 189 187 184 189 199 194 197 201 207 193 192 181 178 181 180 174 175 173 172 164 163 161 139 131 110 80 55 49 45 14 359 355
271 260 240 249 232 236 281 280 119 222 221 208 224 226 223 219 206 194 184 187 193 200 196 199 203 197 189 188 181 178 180 176 175 177 168 158 163 160 145 136 126 102 92 86 50 28 17 8 356